Regional Weather Roundup
Issued by NWS

Home | Current Version | Previous Version | Text Only | Print | Product List | Glossary Off
Versions: 1 2 3 4 5 6 7 8 9 10 11 12 13 14 15 16 17 18 19 20 21 22 23 24 25 26 27 28 29 30 31 32 33 34 35 36 37 38 39 40 41 42 43 44 45 46 47 48 49 50

000
ASUS43 KDTX 231501
RWRMI
MICHIGAN HOURLY REGIONAL WEATHER ROUNDUP
NATIONAL WEATHER SERVICE DETROIT/PONTIAC MI
1100 AM EDT SAT AUG 23 2014

NOTE: "FAIR" INDICATES FEW OR NO CLOUDS BELOW 12,000 FEET WITH NO
SIGNIFICANT WEATHER AND/OR OBSTRUCTION TO VISIBILITY.

MIZ047>049-052>055-059>063-066>070-074>076-081>083-231600-
SOUTHEAST LOWER MICHIGAN

CITY           SKY/WX    TMP DP  RH WIND       PRES   REMARKS
ADRIAN         MOSUNNY   75  64  68 VRB5      30.06R
ALMA           CLOUDY    69  65  86 E5        30.10R
ANN ARBOR      SUNNY     77  64  64 MISG      30.05R
BAD AXE        MOSUNNY   66  66 100 N6        30.09S
CARO           CLOUDY    65  64  95 NE6       30.09R
DETROIT CITY   CLOUDY    70  64  81 N3        30.06S HAZE
DETROIT        CLOUDY    71  62  73 NE8       30.06R
FLINT          SUNNY     74  63  68 E8        30.07R
GROSSE ILE     CLOUDY    70  66  88 NE7       30.04S FOG
HILLSDALE      MOSUNNY   77  69  76 CALM      30.07R
HOWELL         SUNNY     74  61  63 E3        30.06R

CITY           SKY/WX    TMP DP  RH WIND       PRES   REMARKS
JACKSON        MOSUNNY   77  65  66 VRB3      30.07R
LAMBERTVILLE   CLOUDY    73  66  78 E3        30.05R
LANSING        SUNNY     75  63  66 NE6       30.08R
LAPEER         CLOUDY    65  62  90 NE6       30.08S
MASON          SUNNY     74  63  68 CALM      30.07R
MONROE         CLOUDY    72  66  83 E5        30.03S HAZE
MT. CLEMENS    CLOUDY    68  65  89 NE5       30.06R FOG
PONTIAC        MOSUNNY   73  64  73 E5        30.05F
PORT HOPE        N/A     64  62  93 N3        30.08R
PORT HURON     CLOUDY    68  68 100 N5        30.07R FOG
TRI CITIES     CLOUDY    71  65  81 NE12      30.09R
TROY           CLOUDY    69  64  84 NE5       30.08R
SAGINAW HB     PTSUNNY   70  70 100 E8        30.08R
$$
MIZ043>046-050>051-056>058-064>065-071>073-077>080-231600-
SOUTHWEST LOWER MICHIGAN

CITY           SKY/WX    TMP DP  RH WIND       PRES   REMARKS
BATTLE CREEK   MOSUNNY   78  68  71 NE8       30.06R
BENTON HARBOR  CLOUDY    75  72  90 E9        30.02R FOG
BIG RAPIDS     SUNNY     73  66  77 E6        30.08S
COLDWATER      PTSUNNY   77  69  76 CALM      30.05R
FREMONT        FAIR      74  62  65 E8        30.06R
HOLLAND        MOSUNNY   79  72  79 E10       30.04S
GRAND RAPIDS   PTSUNNY   77  67  71 E12       30.06R
IONIA          FAIR      72  64  75 E6        30.07R
KALAMAZOO      MOSUNNY   79  69  71 VRB3      30.04R
LUDINGTON      SUNNY     74  67  76 E9        30.05R
MARSHALL       CLOUDY    74  66  75 CALM      30.05R
MOUNT PLEASANT MOSUNNY   71  64  80 NE5       30.09R
MUSKEGON       PTSUNNY   77  66  68 E8        30.04S
SOUTH HAVEN    CLOUDY    74  74  98 SE7       30.03R FOG
$$
MIZ016>042-231600-
NORTHERN LOWER MICHIGAN

CITY           SKY/WX    TMP DP  RH WIND       PRES   REMARKS
ALPENA         CLOUDY    65  65 100 NE5       30.11S FOG
BEAVER ISLAND  CLOUDY    72  65  80 E7        30.10R
BELLAIRE       MOSUNNY   77  62  59 CALM      30.08R
CADILLAC       SUNNY     74  63  66 E9        30.09R
CHARLEVOIX     SUNNY     75  65  70 E9        30.12R
FRANKFORT      SUNNY     77  63  60 E5        30.05F
GAYLORD        PTSUNNY   69  62  78 NE5       30.12R
GRAYLING       SUNNY     74  66  75 E7        30.12R
HARBOR SPRINGS MOSUNNY   73  64  73 E9G17     30.10R
HOUGHTON LAKE  SUNNY     73  61  65 E8        30.11R
MANISTEE       SUNNY     75  63  64 SE9       30.06S
OSCODA         CLOUDY    64  64 100 NE8       30.10S
PELLSTON       PTSUNNY   73  65  75 E9        30.11R
ROGERS CITY    CLOUDY    65  65 100 E6        30.13R FOG
TRAVERSE CITY  PTSUNNY   76  63  64 CALM      30.06R
$$
MIZ007>008-015-231600-
EASTERN UPPER MICHIGAN

CITY           SKY/WX    TMP DP  RH WIND       PRES   REMARKS
KINROSS        CLOUDY    70  66  88 E8        30.12S
MACKINAC ISLAN FOG       63  63 100 E6        30.11S VSB 1/4
NEWBERRY       CLOUDY    74  65  72 E7        30.11R
S. S. MARIE    CLOUDY    70  64  81 SE7       30.12R
$$
MIZ004>006-011>014-085-231600-
CENTRAL UPPER MICHIGAN

CITY           SKY/WX    TMP DP  RH WIND       PRES   REMARKS
MANISTIQUE     LGT RAIN  68  64  85 E7        30.09R
ESCANABA       CLOUDY    64  63  94 E7        30.08R
MENOMINEE      CLOUDY    72  64  78 SE8       30.04R
SAWYER-GWINN   FOG       66  66 100 SE6       30.09R VSB 3/4
$$
MIZ001>003-009>011-084-231600-
WESTERN UPPER MICHIGAN

CITY           SKY/WX    TMP DP  RH WIND       PRES   REMARKS
IRON MOUNTAIN  CLOUDY    70  67  90 E3        30.06R FOG
HOUGHTON       CLOUDY    65  62  90 E9        30.07S
COPPER HARBOR    N/A     58  55  90 SE5       30.08R
$$

ABBREVIATIONS USED IN REMARKS
   TC - TEMPERATURE IN CELSIUS
  WCI - WIND CHILL INDEX
   HX - HEAT INDEX
  VSB - VISIBILITY



USA.gov is the U.S. government's official web portal to all federal, state and local government web resources and services.